[[{"header":{"parameterUnit":"m.s-1","parameterCategory":1,"la1":30.2991,"la2":30.254,"lo1":-89.0895,"lo2":-89.0444,"dy":0.0017,"dx":0.0017,"nx":28,"ny":28,"refTime":"2024-04-17T09:00:00:Z","depth":0,"parameterNumber":2,"parameterNumberName":"U-component_of_WINDS"},"data":[0,0,0,0,0,0,0,0,0,0,0,0,0,0,0,0,0,0,0,0,0,0,0,0,0,0,0,0,0,0,0,0,0,0,0,0,0,0,0,0,0,0,0,0,0,0,0,0,0,0,0,0,0,0,0,0,0,0,-1.7648,-1.7648,0,-1.761,-1.7609,-1.7609,-1.756,-1.7559,-1.7559,-1.7558,-1.752,-1.752,-1.7519,0,0,0,0,0,0,0,0,0,0,0,0,0,-1.7683,-1.7683,-1.7648,-1.7648,-1.7647,-1.761,-1.7609,-1.7609,-1.756,-1.7559,-1.7558,-1.7558,-1.752,-1.752,-1.7519,0,0,0,0,0,0,0,0,0,0,0,0,0,-1.7659,-1.7683,-1.7648,-1.7619,-1.7616,-1.761,-1.7609,-1.7608,-1.7561,-1.7559,-1.7558,-1.7557,-1.752,-1.752,-1.7519,-1.754,0,0,-1.7518,-1.7518,0,0,0,0,0,0,0,0,-1.766,-1.7657,-1.7624,-1.7621,-1.7617,-1.7588,-1.7607,-1.7585,-1.7561,-1.7581,-1.7558,-1.7557,-1.7544,-1.7541,-1.7537,-1.7538,-1.7536,-1.7518,-1.7518,-1.7517,-1.7517,0,0,0,0,0,0,0,-1.7662,-1.7659,-1.7633,-1.7623,-1.7619,-1.7608,-1.7603,-1.7603,-1.757,-1.758,-1.7576,-1.7572,-1.7542,-1.7537,-1.7535,-1.7536,-1.7518,-1.7517,-1.7517,-1.7517,-1.7553,-1.7555,0,0,0,0,0,0,-1.7668,-1.7661,-1.7634,-1.7632,-1.7636,-1.7609,-1.7603,-1.7599,-1.757,-1.7564,-1.7573,-1.757,-1.7538,-1.7536,-1.7534,-1.7556,-1.7517,-1.7517,-1.7517,-1.7552,-1.7554,-1.7555,0,0,0,0,0,0,-1.7669,-1.7666,-1.7636,-1.7645,-1.7641,-1.7609,-1.7605,-1.7599,-1.7594,-1.7564,-1.7559,-1.7574,-1.7537,-1.7534,-1.7539,-1.7554,-1.7517,-1.7516,-1.7551,-1.7553,-1.7554,-1.7601,0,0,0,0,0,0,-1.767,-1.7666,-1.7673,-1.7646,-1.764,-1.7641,-1.7606,-1.7599,-1.7593,-1.7589,-1.7564,-1.7559,-1.7536,-1.754,-1.7538,-1.7553,-1.7516,-1.7549,-1.7552,-1.7554,-1.7598,-1.7604,-1.7609,0,0,0,0,0,-1.7671,-1.7688,-1.7674,-1.7671,-1.7648,-1.7642,-1.7638,-1.7612,-1.7595,-1.7601,-1.7583,-1.756,-1.7553,-1.7541,-1.7539,-1.7553,-1.7548,-1.7551,-1.7554,-1.7595,-1.7603,-1.7609,0,0,0,0,0,0,-1.7718,-1.7684,-1.7668,-1.7676,-1.7662,-1.7633,-1.7641,-1.7621,-1.7612,-1.7608,-1.7576,-1.7571,-1.7579,-1.7567,-1.7553,-1.7572,-1.7547,-1.755,-1.758,-1.7587,-1.7592,-1.7595,-1.7516,0,0,0,0,0,-1.773,-1.7727,-1.7697,-1.7707,-1.7701,-1.7673,-1.7669,-1.765,-1.7634,-1.7628,-1.761,-1.7596,-1.7591,-1.7588,-1.7582,-1.7597,-1.7591,-1.7606,-1.7612,-1.7617,-1.7619,-1.7626,-1.7632,-1.7564,-1.7564,-1.7564,0,0,-1.7753,-1.7734,-1.7734,-1.7716,-1.7703,-1.7702,-1.7668,-1.7667,-1.7666,-1.7628,-1.7631,-1.7617,-1.76,-1.761,-1.7613,-1.76,-1.7637,-1.762,-1.7624,-1.7624,-1.7629,-1.7636,-1.7642,-1.7566,-1.7566,-1.7565,0,0,-1.7794,-1.7779,-1.7786,-1.7774,-1.7755,-1.7736,-1.7738,-1.7713,-1.7702,-1.7705,-1.7676,-1.7675,-1.7667,-1.7656,-1.7649,-1.7689,-1.7667,-1.7688,-1.7718,-1.7725,-1.7731,-1.7735,-1.7749,-1.7755,-1.7691,-1.7691,-1.7691,0,-1.7825,-1.7821,-1.7793,-1.7794,-1.7787,-1.7753,-1.7761,-1.7751,-1.7731,-1.7727,-1.7713,-1.7702,-1.7689,-1.7695,-1.7705,-1.7701,-1.7703,-1.769,-1.7732,-1.7736,-1.774,-1.7753,-1.7759,-1.7693,-1.7693,-1.7693,-1.7693,0,-1.7861,-1.7858,-1.7866,-1.7847,-1.7842,-1.7847,-1.782,-1.7818,-1.78,-1.7783,-1.7787,-1.7769,-1.7759,-1.776,-1.7742,-1.7764,-1.7757,-1.7738,-1.7712,-1.775,-1.7761,-1.7766,-1.7697,-1.7696,-1.7695,-1.7695,0,0,-1.7928,-1.7895,-1.7898,-1.789,-1.7867,-1.7865,-1.7869,-1.7858,-1.7858,-1.7846,-1.7848,-1.7843,-1.7826,-1.7818,-1.78,-1.7807,-1.7839,-1.7787,-1.7786,-1.7797,-1.7863,-1.7876,-1.7882,-1.7825,-1.7826,-1.7827,-1.7864,0,-1.7965,-1.7968,-1.7943,-1.7953,-1.7951,-1.792,-1.7923,-1.791,-1.7896,-1.7892,-1.7876,-1.7873,-1.785,-1.7846,-1.7851,-1.7834,-1.7852,-1.7831,-1.7827,-1.7828,-1.7831,-1.7888,-1.7903,-1.7938,-1.7868,-1.7869,-1.787,0,-1.8007,-1.7997,-1.8007,-1.7985,-1.7983,-1.7986,-1.7975,-1.7973,-1.7958,-1.7947,-1.794,-1.7918,-1.7921,-1.7898,-1.7902,-1.7889,-1.7886,-1.7878,-1.7879,-1.7876,-1.785,-1.7887,-1.7949,-1.7954,-1.7877,-1.7876,-1.7876,0,-1.8055,-1.8045,-1.8049,-1.8043,-1.8017,-1.802,-1.801,-1.7994,-1.799,-1.7981,-1.7978,-1.797,-1.7965,-1.796,-1.7938,-1.7923,-1.7945,-1.7919,-1.7936,-1.7936,-1.794,-1.794,-1.8002,-1.7941,-1.7941,-1.7941,-1.7941,0,-1.8098,-1.8105,-1.8071,-1.8073,-1.8081,-1.8054,-1.8062,-1.8049,-1.8035,-1.8035,-1.8009,-1.801,-1.7981,-1.7979,-1.7962,-1.7968,-1.7966,-1.7958,-1.7953,-1.7959,-1.796,-1.7956,-1.7953,-1.7942,-1.7942,-1.7941,-1.7941,0,-1.8152,-1.8129,-1.8132,-1.8108,-1.8102,-1.8109,-1.8088,-1.809,-1.8074,-1.8075,-1.8074,-1.8049,-1.8045,-1.8023,-1.8015,-1.8003,-1.8016,-1.8006,-1.802,-1.8017,-1.8034,-1.8033,-1.8095,-1.8102,-1.8037,-1.8038,-1.8038,0,-1.8181,-1.8185,-1.8161,-1.8159,-1.815,-1.8147,-1.8143,-1.8117,-1.8114,-1.8098,-1.8102,-1.8097,-1.8091,-1.8087,-1.8069,-1.8063,-1.8053,-1.8075,-1.8051,-1.8058,-1.8052,-1.8052,-1.8052,-1.808,-1.808,-1.8081,-1.8082,0,-1.8233,-1.8222,-1.8216,-1.8207,-1.8202,-1.8194,-1.8184,-1.8184,-1.8155,-1.8153,-1.8149,-1.8145,-1.8137,-1.8132,-1.8122,-1.8113,-1.8093,-1.8089,-1.8093,-1.8099,-1.8107,-1.8102,-1.8033,-1.8088,-1.8087,-1.8087,-1.8086,-1.8086,-1.8275,-1.8278,-1.8261,-1.8256,-1.8246,-1.8238,-1.8239,-1.8223,-1.8219,-1.8209,-1.8195,-1.8193,-1.818,-1.8165,-1.8157,-1.8156,-1.8145,-1.815,-1.8151,-1.8152,-1.8156,-1.8108,-1.8155,-1.8155,-1.8154,-1.8154,-1.8154,0,-1.8326,-1.8314,-1.8309,-1.8296,-1.8293,-1.8274,-1.8263,-1.8261,-1.8259,-1.8248,-1.8243,-1.8239,-1.8235,-1.8216,-1.821,-1.8213,-1.8204,-1.8212,-1.8211,-1.8209,-1.8167,-1.8164,-1.822,-1.822,-1.822,-1.822,-1.822,-1.822,-1.8351,-1.8355,-1.8343,-1.8342,-1.833,-1.8328,-1.8323,-1.8315,-1.8306,-1.8303,-1.8299,-1.8287,-1.8273,-1.8266,-1.8261,-1.8256,-1.8255,-1.8266,-1.8258,-1.8219,-1.8212,-1.8206,-1.8203,-1.8267,-1.8267,-1.8301,-1.8301,-1.8302]},{"header":{"parameterUnit":"m.s-1","parameterCategory":1,"la1":30.2991,"la2":30.254,"lo1":-89.0895,"lo2":-89.0444,"dy":0.0017,"dx":0.0017,"nx":28,"ny":28,"refTime":"2024-04-17T09:00:00:Z","depth":0,"parameterNumber":3,"parameterNumberName":"V-component_of_WINDS"},"data":[0,0,0,0,0,0,0,0,0,0,0,0,0,0,0,0,0,0,0,0,0,0,0,0,0,0,0,0,0,0,0,0,0,0,0,0,0,0,0,0,0,0,0,0,0,0,0,0,0,0,0,0,0,0,0,0,0,0,3.7442,3.7442,0,3.7471,3.7471,3.7471,3.7493,3.7493,3.7494,3.7494,3.7519,3.752,3.752,0,0,0,0,0,0,0,0,0,0,0,0,0,3.7403,3.7404,3.7442,3.7442,3.7442,3.747,3.7471,3.7471,3.7493,3.7493,3.7494,3.7494,3.7519,3.752,3.752,0,0,0,0,0,0,0,0,0,0,0,0,0,3.7425,3.7404,3.7442,3.7457,3.7458,3.747,3.7471,3.7471,3.7493,3.7493,3.7494,3.7494,3.7519,3.752,3.752,3.7518,0,0,3.7522,3.7523,0,0,0,0,0,0,0,0,3.7423,3.7426,3.7454,3.7456,3.7458,3.7479,3.7467,3.7487,3.7493,3.748,3.7494,3.7494,3.7505,3.7507,3.7512,3.7519,3.752,3.7523,3.7523,3.7523,3.7523,0,0,0,0,0,0,0,3.7422,3.7425,3.7453,3.7455,3.7457,3.7461,3.7465,3.7471,3.749,3.7481,3.7483,3.7486,3.7506,3.7511,3.7512,3.7521,3.7523,3.7523,3.7524,3.7524,3.7531,3.753,0,0,0,0,0,0,3.7419,3.7424,3.7452,3.7454,3.7441,3.7462,3.7466,3.7471,3.749,3.7493,3.7486,3.7487,3.7509,3.7511,3.7513,3.7514,3.7523,3.7524,3.7524,3.7531,3.753,3.753,0,0,0,0,0,0,3.7418,3.7421,3.7451,3.7439,3.7443,3.7462,3.7469,3.7472,3.7477,3.7494,3.7497,3.7487,3.751,3.7512,3.7518,3.7515,3.7524,3.7525,3.7531,3.7531,3.753,3.7513,0,0,0,0,0,0,3.7416,3.742,3.742,3.7439,3.7444,3.7455,3.7468,3.7472,3.7478,3.748,3.7496,3.7499,3.751,3.7516,3.7518,3.7516,3.7525,3.7531,3.7531,3.753,3.7514,3.7512,3.7511,0,0,0,0,0,3.7415,3.7413,3.742,3.7423,3.7444,3.7455,3.7458,3.7472,3.7478,3.7478,3.7489,3.7498,3.7515,3.7517,3.7519,3.7517,3.7532,3.7531,3.753,3.7515,3.7513,3.7511,0,0,0,0,0,0,3.7391,3.7415,3.7424,3.7428,3.744,3.7459,3.7459,3.7469,3.7478,3.7479,3.7495,3.7499,3.7503,3.751,3.7512,3.7517,3.7525,3.7524,3.7512,3.751,3.7508,3.7506,3.7526,0,0,0,0,0,3.7386,3.7394,3.7415,3.7416,3.7422,3.7439,3.7445,3.7455,3.7467,3.7472,3.7483,3.7494,3.7502,3.7506,3.7514,3.7515,3.752,3.7515,3.7514,3.7512,3.7512,3.7515,3.7513,3.7528,3.7528,3.7528,0,0,3.7376,3.7391,3.7394,3.7412,3.7422,3.743,3.7443,3.745,3.7455,3.7472,3.7479,3.7488,3.75,3.7504,3.7507,3.7511,3.7509,3.7511,3.751,3.7511,3.7514,3.7513,3.7511,3.7528,3.7528,3.7528,0,0,3.7362,3.7374,3.7378,3.7388,3.7404,3.7417,3.7417,3.7436,3.7443,3.745,3.7464,3.747,3.7483,3.7492,3.7498,3.749,3.75,3.7492,3.7483,3.7486,3.7485,3.7484,3.7482,3.7481,3.7492,3.7492,3.7492,0,3.7347,3.736,3.7377,3.7384,3.7392,3.741,3.7414,3.7423,3.744,3.7445,3.7449,3.7468,3.7477,3.7484,3.7483,3.7487,3.7489,3.749,3.7484,3.7483,3.7483,3.7481,3.748,3.7491,3.7491,3.7491,3.7491,0,3.7342,3.7351,3.7351,3.737,3.7378,3.7383,3.7401,3.7406,3.7417,3.7428,3.7436,3.7449,3.746,3.7463,3.7472,3.7472,3.7474,3.7481,3.7489,3.748,3.7479,3.7479,3.749,3.749,3.749,3.7491,0,0,3.7312,3.7343,3.7343,3.7352,3.7373,3.7379,3.7385,3.7399,3.7404,3.7415,3.7421,3.7433,3.7441,3.7448,3.7458,3.746,3.7455,3.7467,3.7468,3.7465,3.7457,3.7452,3.7451,3.7462,3.7461,3.7461,3.7457,0,3.7302,3.7316,3.7333,3.734,3.7349,3.7367,3.7373,3.7386,3.7397,3.7406,3.7417,3.7426,3.7435,3.744,3.7443,3.7455,3.7454,3.7456,3.7467,3.7467,3.7464,3.7451,3.7445,3.744,3.7456,3.7456,3.7456,0,3.7291,3.7305,3.7314,3.7336,3.734,3.7345,3.736,3.7368,3.7383,3.7391,3.7401,3.7413,3.742,3.7427,3.7438,3.7439,3.7445,3.7452,3.7452,3.7453,3.7461,3.7452,3.7438,3.7438,3.7455,3.7455,3.7455,0,3.727,3.729,3.7299,3.7307,3.7332,3.7335,3.7346,3.7361,3.7369,3.7381,3.7387,3.7399,3.7406,3.7415,3.743,3.7434,3.744,3.7448,3.7446,3.7446,3.7447,3.7446,3.7434,3.745,3.745,3.745,3.745,0,3.7258,3.7263,3.7291,3.7296,3.7303,3.7322,3.7328,3.734,3.7354,3.7362,3.7377,3.7384,3.7403,3.7412,3.7424,3.7432,3.7434,3.7441,3.7444,3.744,3.7439,3.7444,3.7445,3.7449,3.7449,3.7449,3.7449,0,3.7235,3.7254,3.7265,3.7289,3.7295,3.7299,3.7319,3.7325,3.7338,3.7348,3.7351,3.7371,3.7383,3.7399,3.7414,3.7422,3.7429,3.7433,3.7424,3.7426,3.7424,3.7425,3.7414,3.7414,3.743,3.7429,3.7429,0,3.7226,3.7231,3.7256,3.7264,3.7274,3.7285,3.7294,3.7313,3.7322,3.7341,3.7344,3.7358,3.7369,3.7387,3.7402,3.7415,3.742,3.7416,3.7422,3.7418,3.7421,3.7421,3.7422,3.7414,3.7414,3.7413,3.7413,0,3.7208,3.7218,3.723,3.7247,3.7258,3.7271,3.7285,3.729,3.7312,3.7321,3.7334,3.7343,3.7361,3.7374,3.7389,3.7399,3.741,3.7412,3.7412,3.7408,3.7403,3.7407,3.7421,3.7411,3.7412,3.7412,3.7412,3.7412,3.7192,3.7198,3.7218,3.7232,3.7246,3.7259,3.7266,3.7281,3.7293,3.731,3.7321,3.7334,3.735,3.7372,3.7382,3.7392,3.7396,3.7396,3.7397,3.7396,3.7396,3.7401,3.7394,3.7394,3.7394,3.7394,3.7394,0,3.7176,3.7191,3.7203,3.7224,3.7235,3.7247,3.7264,3.7272,3.7284,3.7299,3.7311,3.7327,3.734,3.7357,3.7372,3.7377,3.7382,3.738,3.738,3.7382,3.739,3.7389,3.7375,3.7375,3.7375,3.7375,3.7375,3.7375,3.7169,3.7181,3.7193,3.7212,3.7225,3.724,3.7248,3.7261,3.7273,3.7291,3.7303,3.7315,3.7331,3.7347,3.736,3.7365,3.7369,3.7366,3.7372,3.7379,3.7381,3.7383,3.7382,3.7366,3.7366,3.7363,3.7363,3.7363]}]]